Weather History for KBKF - January, 2014

Change the Weather History Date:

Sunday, January 26, 2014

  Actual Average Record
Temperature  
Mean Temperature 36 °F -  
Max Temperature 55 °F 43 °F 68 °F (2015)
Min Temperature 15 °F 21 °F 3 °F (2004)
Degree Days  
Heating Degree Days 29    
Moisture  
Dew Point 15 °F    
Average Humidity 47    
Maximum Humidity 75    
Minimum Humidity 18    
Precipitation  
Precipitation 0.00 in - - ()
Sea Level Pressure  
Sea Level Pressure 29.91 in    
Wind  
Wind Speed 12 mph (NNW)    
Max Wind Speed 31 mph    
Max Gust Speed 44 mph    
Visibility 10 miles    
Events Snow    
Averages and records for this station are not official NWS values.
T = Trace of Precipitation, MM = Missing Value Source: NWS Daily Summary

Daily Weather History Graph

Daily Weather History Graph

Search for Another Location

Airport or City:

Trip Planner

Search our weather history database for the weather conditions in past years. The results will help you decide how hot, cold, wet, or windy it might be!

Date:

Astronomy

Jan. 26, 2014 Rise Set
Actual Time 7:11 AM MST 5:11 PM MST
Civil Twilight 6:43 AM MST 5:40 PM MST
Nautical Twilight 6:10 AM MST 6:13 PM MST
Astronomical Twilight 5:38 AM MST 6:45 PM MST
Moon 2:51 AM MST (1/26) 1:03 PM MST (1/26)
Length of Visible Light 10h 57m
Length of Day
9h 59m
Waning Crescent, 23% of the Moon is Illuminated
Jan 26
Waning Crescent
Jan 30
New
Feb 6
First Quarter
Feb 14
Full
Feb 22
Last Quarter

Hourly Weather History & Observations

Time (MST) Temp. Windchill Dew Point Humidity Pressure Visibility Wind Dir Wind Speed Gust Speed Precip Events Conditions
12:55 AM 44.6 °F 41.4 °F 14.0 °F 29% 29.82 in 10.0 mi SW 5.8 mph - N/A   Clear
1:55 AM 44.6 °F 39.7 °F 14.0 °F 29% 29.83 in 10.0 mi NNW 9.2 mph - N/A   Clear
2:55 AM 39.2 °F 37.0 °F 15.8 °F 39% 29.85 in 10.0 mi SW 3.5 mph - N/A   Clear
3:55 AM 39.2 °F 35.9 °F 15.8 °F 39% 29.83 in 10.0 mi WSW 4.6 mph - N/A   Clear
4:55 AM 32.0 °F 24.8 °F 19.4 °F 60% 29.84 in 10.0 mi South 8.1 mph - N/A   Clear
5:55 AM 32.0 °F 22.5 °F 19.4 °F 60% 29.84 in 10.0 mi South 12.7 mph - N/A   Clear
6:55 AM 32.0 °F 24.2 °F 17.6 °F 55% 29.83 in 25.0 mi South 9.2 mph - N/A   Partly Cloudy
7:55 AM 33.8 °F 24.8 °F 17.6 °F 52% 29.81 in 70.0 mi SSW 12.7 mph - N/A   Partly Cloudy
8:55 AM 41.0 °F 33.5 °F 17.6 °F 39% 29.76 in 70.0 mi SSW 13.8 mph - N/A   Partly Cloudy
9:55 AM 48.2 °F - 15.8 °F 27% 29.74 in 70.0 mi SSW 11.5 mph - N/A   Partly Cloudy
10:55 AM 53.6 °F - 14.0 °F 21% 29.70 in 70.0 mi West 10.4 mph - N/A   Partly Cloudy
11:55 AM 55.4 °F - 14.0 °F 20% 29.69 in 70.0 mi WNW 23.0 mph 32.2 mph N/A   Scattered Clouds
12:55 PM 55.4 °F - 12.2 °F 18% 29.65 in 70.0 mi WNW 31.1 mph 43.7 mph N/A   Scattered Clouds
1:55 PM 55.4 °F - 14.0 °F 20% 29.68 in 70.0 mi WNW 20.7 mph 32.2 mph N/A   Scattered Clouds
2:55 PM 55.4 °F - 14.0 °F 20% 29.72 in 70.0 mi WNW 20.7 mph 29.9 mph N/A   Scattered Clouds
3:55 PM 46.4 °F 38.7 °F 17.6 °F 32% 29.82 in 70.0 mi NE 20.7 mph 26.5 mph N/A   Mostly Cloudy
4:55 PM 37.4 °F 26.4 °F 24.8 °F 60% 29.94 in 70.0 mi NE 23.0 mph 28.8 mph N/A   Mostly Cloudy
5:55 PM 32.0 °F 18.1 °F 24.8 °F 75% 30.05 in 10.0 mi NNE 27.6 mph 34.5 mph N/A Snow Light Snow
6:55 PM 24.8 °F 9.3 °F 17.6 °F 74% 30.14 in 10.0 mi NE 24.2 mph 31.1 mph N/A Snow Light Snow
7:20 PM 23.0 °F 6.9 °F 15.8 °F 74% 30.10 in 10.0 mi NNE 24.2 mph 31.1 mph N/A Snow Light Snow
7:55 PM 21.2 °F 6.8 °F 10.4 °F 63% 30.20 in 10.0 mi NNE 17.3 mph - N/A Snow Light Snow
8:55 PM 21.2 °F 7.8 °F 8.6 °F 58% 30.17 in 10.0 mi NNE 15.0 mph - N/A Snow Light Snow
9:55 PM 17.6 °F 5.0 °F 6.8 °F 63% 30.15 in 10.0 mi NE 11.5 mph - N/A Snow Light Snow
10:44 PM 17.6 °F 5.0 °F 6.8 °F 63% 30.13 in 10.0 mi NE 11.5 mph - N/A   Overcast
10:55 PM 17.6 °F 6.4 °F 6.8 °F 63% 30.14 in 10.0 mi NE 9.2 mph - N/A   Overcast
11:55 PM 15.8 °F 3.4 °F 8.6 °F 73% 30.14 in 10.0 mi NE 10.4 mph - N/A   Overcast